Погода Пограничное

Погода Пограничное : погода сейчас, прогноз погоды и архив. Всё, что Вы хотите узнать о погоде Пограничное!

Хотите узнать прогноз погоды Пограничное? Тогда Вам сюда: Погода Пограничное

Поиск расширенной информации на нашем сайте:

Другие новости

Новости СМИ2

Главная страница сайта

Новости сайта

03.07.2017

Напоминаем, что на нашем специализированном сайте Метеоцентр.Азия вы можете получить высокодетализированные автоматические прогнозы погоды по пунктам России, СНГ и мира в авиационном формате (включающие направление и скорость ветра, видимость, явления погоды, количество и форму облачности, нижнюю и верхнюю границу облачности).

Рекомендуем: ремонт стиральной машины бош макс

Погода Пограничное - сегодня

Время (UTC), дата Ветер
(°,м/с) 
Видим.   Явления Облачность Т
(°С)
Тd
(°С)
f(%) Тe
(°С)
Pmin
(гПа)
dP
(гПа)
Po
(мм)
O2
(г/м3)
Тmin Tmax R s Состояние
почвы
21 15.04.18 260 (З) 1-1{02}  20000 м    10/10 300 м 
[Sc]
-4.2 -6.5 84 -4  1006.5  0.1  754  309  -5.9      96  равномерный
мокрый или
старый снег
100% 
03 16.04.18 120 (ЮВ) 3-5{05}  20000 м    ясно 
-1.3 -5.2 75 -3  1005  -1.1  753  305           
06 16.04.18 130 (ЮВ) 3-5{06}  20000 м    ясно 
-1 -4.3 78 -3  1004.8  -0.2  753  305           
12 16.04.18 160 (Ю) 1-2{04}  20000 м    ясно 
-4.1 -5.7 89 -4  1006.2  0.8  754  309           
15 16.04.18 290 (З) 4-7{09}  н/о    н/о 
+4.1 -10.3 34 +2  1004.5  -1.7  753  300           
18 16.04.18 280 (З) 5-9{11}  н/о    н/о 
+5.2 -9.3 34 +3  1004  -0.5  752  298           
03 17.04.18 130 (ЮВ) 4-6{06}  20000 м    ясно 
+4.7 -5.7 47 +3  1007.2  0.2  755  300           
12 17.04.18 250 (З) 3-4{05}  20000 м    ясно 
+8 -8.1 31 +7  1005.8  0.5  754  296           
15 17.04.18 330 (СЗ) 1-1{05}  н/о    н/о 
+6.1 -5.1 44 +7  1005.3  -0.5  753  297           
18 17.04.18 280 (З) 3-5{07}  н/о    н/о 
+6.7 -5 43 +6  1005  -0.3  753  297           
21 17.04.18 110 (В) 1-2{08}  20000 м    3/0 верхняя 
[Ci fib]
+7 -3 49 +8  1005.1  0.1  753  296  +2.1      86  равномерный
мокрый или
старый снег
100% 
12 18.04.18 360 (С) 1-2{04}  20000 м  {морось}  10/10 300 м 
[Sc]
+2.4 -1.7 74 +3  1011.2  1.3  758  303           
15 18.04.18 тихо () {02}  н/о    н/о 
+1 -0.9 87 +1  1011.2  0.1  758  304           
18 18.04.18 280 (З) 1{02}  н/о    н/о 
+0.8 -1 88 +1  1011.5  0.2  758  305           
21 18.04.18 230 (ЮЗ) 1-1{02}  20000 м    10/10 600 м 
[Sc]
+1.4 -0.9 85 +2  1011.8  0.3  758  304  +0.5      82  равномерный
мокрый или
старый снег
100% 
12 19.04.18 тихо () {02}  20000 м    6/6 600 м 
[Sc]
-1.9 -2.6 95 -2  1012.4  0.1  758  308           
15 19.04.18 270 (З) 1-4{04}  н/о    н/о 
+1.8 -1 82 +3  1011.2  -1.1  758  303           
18 19.04.18 240 (ЮЗ) 3-4{05}  н/о    н/о 
+2.6 -1.4 75 +1  1009.9  -1.3  757  302           
21 19.04.18 260 (З) 2-3{05}  20000 м    6/0 средняя, верхняя 
[Ac trans|Ci fib]
+3.1 -1.3 73 +3  1008.6  -1.3  756  301  -2      79  равномерный
мокрый или
старый снег
100% 
12 20.04.18 тихо () {05}  20000 м    4/3 600 м верхняя 
[Sc|Ci fib]
-1 -1.7 95 -1  1010.7  757  306           
15 20.04.18 тихо () {02}  н/о    н/о 
-0.2 -1 94 -0  1009.1  -1.6  756  305           
18 20.04.18 050 (СВ) 1-1{01}  н/о    н/о 
-0.2 -0.8 96 1007.4  -1.8  755  304           
21 20.04.18 120 (ЮВ) 1-2{03}  4000 м  слаб. снег  10/10 300 м 
[Frnb|Ns]
-0.8 -1.1 98 1005.6  -1.8  753  305  -1.3    82  равномерный
сухой снег
100% 
00 21.04.18 050 (СВ) 1-2{02}  4000 м  слаб. снег  10/10 300 м 
[Frnb|Ns]
-0.5 -0.9 97 1003.6  -2  752  304           
12 21.04.18 360 (С) 4-10{12}  20000 м  {снег}  10/10 300 м 
[Sc]
-2 -3 93 -5  1014.2  3.8  760  309           
Время (UTC), дата Ветер
(°,м/с) 
Видим.   Явления Облачность Т
(°С)
Тd
(°С)
f(%) Тe
(°С)
Pmin
(гПа)
dP
(гПа)
Po
(мм)
O2
(г/м3)
Тmin Tmax R s Состояние
почвы

Для получения пояснительной информации подведите курсор к названию столбца.

ПОГОДА Пограничное - архив

Всё, что Вы хотите узнать о погоде Пограничное - удобно и подробно!

Выберите нужную дату (начиная с 1 января 2015* года) и нажмите кнопку "Найти".
Будут отображены архивные сводки погоды по пункту Пограничное, начиная с указанной даты.


Отображать данные в формате CSV (для использования в таблицах Excel)


Внимание! Наш архив погоды предназначен исключительно для личного некоммерческого использования в познавательных целях. Если Вам необходимы официальные справки о состоянии погоды (для производственных, юридических, коммерческих и т.п. целей), обращайтесь в органы Росгидромета.

*Примечание: данная дата относится к архиву по метеостанциям СССР (Россия, СНГ, Балтия).
Архив по метеостанциям Зарубежной Европы и Азии (кроме Китая) хранится 10 дней, по другим регионам земного шара (Китай, Африка, Америка, Австралия, Океания) - 1 день.

Пограничное - район местоположения метеостанции


Название, широта, долгота, высота метеостанции:
Пограничное 50.4°ш. 143.8°д. 8 м над ур. моря [Российская Федерация]

Дополнительная информация

В oтличие oт бoльшинства пoгoдных сайтoв мы публикуем пoдрoбную метеoинфoрмацию в детальнoм прoфессиoнальнoм фoрмате.

Характеристики температуры и влажнoсти вoздуха измеряются на высoте 2 м в тени вдали oт зданий и деревьев.
Скoрoсть ветра измеряется на высoте 10 м (на урoвне рoста челoвека скoрoсть ветра ниже в 1.5-2 раза). Если метеoстанция нахoдится в гoрoде или в лесу, тo скoрoсть ветра занижена на 2-4 м/с пo сравнению с oткрытым местoм. Скoрoсть ветра над акватoриями крупных рек и oзёр, а также на вершинах хoлмoв на 2-5 м/с выше, чем в oбычных услoвиях.
Атмoсфернoе давление в разных тoчках местнoсти мoжет значительнo oтличаться oт давления на метеoстанции, в зависимoсти oт услoвий рельефа (при пoдъёме на 10 м давление пoнижается примернo на 1 мм рт.ст.).